This is the latest recevied weather packets stored in our database for station/object WE3WEE. If no packets are shown the sender has not sent any weather packets the latest 10 day(s).
| Time | Temp. | Humidity | Pressure | Rain* | Wind** | Luminosity | Snow |
|---|---|---|---|---|---|---|---|
| 1777304259 | 18.33° C | 43% | 1024.9 hPa | 0 mm | - | - | - |
| 1777303957 | 18.33° C | 44% | 1024.9 hPa | 0 mm | - | - | - |
| 1777303653 | 17.78° C | 44% | 1024.9 hPa | 0 mm | - | - | - |
| 1777303351 | 17.78° C | 48% | 1024.9 hPa | 0 mm | - | - | - |
| 1777303048 | 17.78° C | 51% | 1024.9 hPa | 0 mm | - | - | - |
| 1777302746 | 17.78° C | 49% | 1024.9 hPa | 0 mm | - | - | - |
| 1777302444 | 17.78° C | 53% | 1024.9 hPa | 0 mm | - | - | - |
| 1777302141 | 17.22° C | 53% | 1024.9 hPa | 0 mm | - | - | - |
| 1777301839 | 16.67° C | 54% | 1024.9 hPa | 0 mm | - | - | - |
| 1777301536 | 17.22° C | 56% | 1024.9 hPa | 0 mm | - | - | - |
| 1777301233 | 16.67° C | 54% | 1024.9 hPa | 0 mm | - | - | - |
| 1777300929 | 16.67° C | 61% | 1024.9 hPa | 0 mm | - | - | - |
| 1777300628 | 16.67° C | 60% | 1024.9 hPa | 0 mm | - | - | - |
| 1777300325 | 16.67° C | 57% | 1024.9 hPa | 0 mm | - | - | - |
| 1777300017 | 16.67° C | 58% | 1024.9 hPa | 0 mm | - | - | - |
| 1777299713 | 16.67° C | 64% | 1024.9 hPa | 0 mm | - | - | - |
| 1777299411 | 16.11° C | 65% | 1024.9 hPa | 0 mm | - | - | - |
| 1777299109 | 15.56° C | 66% | 1024.9 hPa | 0 mm | - | - | - |
| 1777298806 | 15° C | 68% | 1024.9 hPa | 0 mm | - | - | - |
| 1777298501 | 14.44° C | 68% | 1024.9 hPa | 0 mm | - | - | - |
| 1777298198 | 14.44° C | 70% | 1024.9 hPa | 0 mm | - | - | - |
| 1777297893 | 13.89° C | 71% | 1024.9 hPa | 0 mm | - | - | - |
| 1777297591 | 13.89° C | 73% | 1024.9 hPa | 0 mm | - | - | - |
| 1777297287 | 13.89° C | 72% | 1024.9 hPa | 0 mm | - | - | - |
| 1777296985 | 13.33° C | 74% | 1024.9 hPa | 0 mm | - | - | - |
* Rain latest hour (hover to see other rain measurements)
** Current wind speed in m/s (hover to see current wind gust speed)